Overview Statistics Trail Chart Weather Telemetry Raw packets
 

This is the latest recevied weather packets stored in our database for station/object ALANSN-2. If no packets are shown the sender has not sent any weather packets the latest 10 day(s).

<< 82 83 84 85 86 87 88 >>
Time Temp. Humidity Pressure Rain* Wind** Luminosity Snow
1787954217 23.89° C 60% 1031 hPa 0 mm - 284 W/m² -
1787953920 23.33° C 61% 1030.9 hPa 0 mm - 308 W/m² -
1787953620 23.33° C 61% 1030.9 hPa 0 mm - 308 W/m² -
1787953318 23.33° C 63% 1031 hPa 0 mm - 323 W/m² -
1787953020 23.33° C 61% 1030.8 hPa 0 mm - 310 W/m² -
1787952720 23.33° C 61% 1030.8 hPa 0 mm - 333 W/m² -
1787952420 23.33° C 61% 1030.9 hPa 0 mm - 362 W/m² -
1787952120 23.33° C 63% 1031 hPa 0 mm - 374 W/m² -
1787951820 23.33° C 63% 1031 hPa 0 mm - 374 W/m² -
1787951520 23.33° C 61% 1031.1 hPa 0 mm - 400 W/m² -
1787951220 23.33° C 61% 1031.2 hPa 0 mm - 411 W/m² -
1787950920 23.33° C 61% 1031.2 hPa 0 mm - 411 W/m² -
1787950620 23.33° C 60% 1031.3 hPa 0 mm - 417 W/m² -
1787950320 22.78° C 63% 1031.2 hPa 0 mm - 442 W/m² -
1787950020 22.78° C 63% 1031.2 hPa 0 mm - 442 W/m² -
1787949720 23.33° C 61% 1031.3 hPa 0 mm - 475 W/m² -
1787949420 22.78° C 66% 1031.2 hPa 0 mm - 489 W/m² -
1787949120 22.78° C 66% 1031.2 hPa 0 mm - 489 W/m² -
1787948823 22.78° C 62% 1031.3 hPa 0 mm - 497 W/m² -
1787948520 22.78° C 67% 1031.3 hPa 0 mm - 519 W/m² -
1787948217 22.78° C 67% 1031.3 hPa 0 mm - 519 W/m² -
1787947920 23.33° C 65% 1031.5 hPa 0 mm - 498 W/m² -
1787947621 23.33° C 66% 1031.4 hPa 0 mm - 521 W/m² -
1787947318 23.33° C 66% 1031.4 hPa 0 mm - 521 W/m² -
1787947020 22.22° C 70% 1031.5 hPa 0 mm - 507 W/m² -

* Rain latest hour (hover to see other rain measurements)
** Current wind speed in m/s (hover to see current wind gust speed)